This demonstration page uses our WeatherBlox Daily Observations layout. Learn more.

39.92423, -83.80882

Hourly Observations for December 8, 2017

Temp ( °F °C ) Dew Point ( °F °C ) Humidity (%) Winds ( mph kmh ) Pressure ( in mb ) Visibility ( mi km ) Precip ( " mm )
12:56 am 00:56 Clear 18 -7.8 14 -10 84 84 SSW 6 9 30.19 1022 10 16.0934 0 0
1:56 am 01:56 Clear 18 -7.8 14 -10 84 84 SW 7 11 30.18 1022 10 16.0934 0 0
2:56 am 02:56 Clear 18 -7.8 14 -10 84 84 SW 7 11 30.17 1022 10 16.0934 0 0
3:56 am 03:56 Clear 18 -7.8 14 -10 84 84 SW 6 9 30.16 1022 10 16.0934 0 0
4:56 am 04:56 Clear 18 -7.8 15 -9.4 88 88 SW 7 11 30.16 1021 10 16.0934 0 0
5:56 am 05:56 Clear 19 -7.2 15 -9.4 84 84 WSW 8 13 30.15 1021 10 16.0934 0 0
6:56 am 06:56 Clear 16 -8.9 13 -10.6 88 88 SW 7 11 30.16 1022 10 16.0934 0 0
7:56 am 07:56 Sunny 15 -9.4 13 -10.6 91 91 SW 7 11 30.17 1022 10 16.0934 0 0
8:56 am 08:56 Sunny 19 -7.2 16 -8.9 88 88 WSW 8 13 30.17 1022 10 16.0934 0 0
9:56 am 09:56 Sunny 22 -5.6 16 -8.9 78 78 WSW 13 20 30.18 1022 10 16.0934 0 0
10:56 am 10:56 Sunny 24 -4.4 14 -10 65 65 WSW 9 15 30.14 1021 10 16.0934 0 0
11:56 am 11:56 Sunny 26 -3.3 12 -11.1 55 55 SW 10 17 30.11 1020 10 16.0934 0 0
12:56 pm 12:56 Sunny 27 -2.8 12 -11.1 53 53 SW 9 15 30.1 1019 10 16.0934 0 0
1:56 pm 13:56 Sunny 29 -1.7 13 -10.6 51 51 WSW 12 19 30.06 1018 10 16.0934 0 0
2:56 pm 14:56 Sunny 28 -2.2 12 -11.1 51 51 SW 12 19 30.07 1018 10 16.0934 0 0
3:56 pm 15:56 Sunny 28 -2.2 11 -11.7 49 49 WSW 7 11 30.04 1017 10 16.0934 0 0
4:56 pm 16:56 Sunny 27 -2.8 11 -11.7 51 51 SSW 9 15 30.04 1017 10 16.0934 0 0
5:56 pm 17:56 Clear 24 -4.4 10 -12.2 55 55 WSW 5 7 30.02 1017 10 16.0934 0 0
6:56 pm 18:56 Clear 23 -5 11 -11.7 60 60 S 6 9 30.04 1017 10 16.0934 0 0
7:56 pm 19:56 Clear 23 -5 11 -11.7 60 60 S 6 9 30.03 1017 10 16.0934 0 0
8:56 pm 20:56 Clear 23 -5 11 -11.7 60 60 SSW 6 9 30.02 1017 10 16.0934 0 0
9:56 pm 21:56 Clear 21 -6.1 12 -11.1 68 68 SSW 6 9 30 1016 10 16.0934 0 0
10:56 pm 22:56 Clear 22 -5.6 12 -11.1 66 66 SSW 6 9 29.98 1015 10 16.0934 0 0
11:56 pm 23:56 Clear 21 -6.1 13 -10.6 71 71 SSW 8 13 29.98 1015 10 16.0934 0 0

Powered by AerisWeather